Regional Weather Roundup
Issued by NWS

Home | Current Version | Previous Version | Graphics & Text | Print | Product List | Glossary On
Versions: 1 2 3 4 5 6 7 8 9 10 11 12 13 14 15 16 17 18 19 20 21 22 23 24 25 26 27
000
ASUS45 KBOU 300807
RWRCO

WEATHER ROUNDUP FOR COLORADO
NATIONAL WEATHER SERVICE DENVER/BOULDER CO
200 AM MDT SAT APR 30 2016

NOTE: "FAIR" INDICATES FEW OR NO CLOUDS BELOW 12000 FEET WITH NO
SIGNIFICANT WEATHER AND/OR OBSTRUCTIONS TO VISIBILITY.

COZ001>005-013-030-031-300900-
...NORTHWEST COLORADO...

CITY           SKY/WX    TMP DP  RH WIND       PRES   REMARKS
CRAIG          CLOUDY    35  30  82 W10       29.87S WCI  27
HAYDEN         CLOUDY    34  27  75 W12       29.85S WCI  25
MEEKER         CLOUDY    34  31  88 CALM      29.87R
MOUNT WERNER   NOT AVBL
STEAMBOAT SPGS CLOUDY    32  30  93 S7        29.84S WCI  26
WALDEN         MOCLDY    28  23  80 NW7       29.55F WCI  21
$$

COZ006>008-011-300900-
...WEST CENTRAL VALLEYS...

CITY           SKY/WX    TMP DP  RH WIND       PRES   REMARKS
GRAND JUNCTION CLOUDY    42  41  96 NE6       29.83S
MONTROSE       CLOUDY    42  35  76 SE3       29.86F
EAGLE          CLOUDY    37  36  93 W3        29.85S
RIFLE          MOCLDY    43  37  79 CALM      29.84R
DELTA          NOT AVBL
NUCLA          NOT AVBL
$$

COZ017>023-064>068-300900-
...SOUTHWEST COLORADO...

CITY           SKY/WX    TMP DP  RH WIND       PRES   REMARKS
DURANGO        FAIR      28  25  88 E6        29.85R WCI  22
CORTEZ         FAIR      32  30  92 NE6       29.87F WCI  26
PAGOSA SPRINGS FAIR      31  31 100 CALM      29.87S
TELLURIDE      CLOUDY    30  30 100 CALM      29.91S
WOLF CREEK PAS FOG       19  19 100 SW14      29.92F VSB 3/4 WCI   6
$$

COZ009-010-012-014-032>034-037-058>063-300900-
...CENTRAL COLORADO...

CITY           SKY/WX    TMP DP  RH WIND       PRES   REMARKS
ASPEN          LGT SNOW  33  31  92 N3        29.82S FOG
BUENA VISTA    FAIR      22  20  93 W3        29.84S
COPPER MTN     NOT AVBL
BERTHOUD PASS  LGT SNOW  12   3  67 NW7       29.84S VSB 3/4 WCI   2
COTTONWOOD PAS LGT SNOW  28  25  86 CALM      29.84S VSB 3/4
GUNNISON       MOCLDY    36  30  80 SW8       29.85S
KREMMLING      FLURRIES  32  27  80 N12G17    29.84S WCI  23
LEADVILLE      LGT SNOW  22  21  96 NE6       29.82F FOG     WCI  14
MONARCH PASS   CLOUDY    23  19  86 MISG      29.95F
SALIDA         CLOUDY    31  29  92 NW3       29.91S
SUNLIGHT       FOG      N/A N/A N/A W5        29.91S VSB<1/4
WILKERSON PASS CLOUDY   N/A N/A N/A CALM      29.85F
$$

COZ069>075-300900-
...SAN LUIS VALLEY/SANGRE DE CRISTO MOUNTAINS...

CITY           SKY/WX    TMP DP  RH WIND       PRES   REMARKS
ALAMOSA        CLOUDY    33  31  92 CALM      29.83F
LA VETA PASS   SNOW      27  27 100 MISG      29.83R VSB 1/2
SAGUACHE       LGT SNOW  32  32 100 CALM      29.85S
$$

COZ035-036-038>040-300900-
...NORTHERN COLORADO FRONT RANGE...

CITY           SKY/WX    TMP DP  RH WIND       PRES   REMARKS
DENVER INTL AP SNOW      32  29  88 NW7       29.87F VSB 1/4 WCI  26
DMNS CITY PARK   N/A     32  32  99 N2G8      29.89S
AURORA         CLOUDY    32  32 100 N7        29.87F WCI  26
FRONT RANGE AP NOT AVBL
ERIE MUNI ARPT LGT SNOW  33  33 100 CALM      29.90S
BOULDER MUN AP LGT RAIN  34  34 100 N7        29.89S WCI  28
CENTENNIAL     LGT SNOW  31  31 100 N8        29.87S FOG     WCI  23
BROOMFIELD     LGT SNOW  32  32 100 N6        29.89S WCI  26
FORT COLLINS   MOCLDY    36  32  87 N9        29.90F
LONGMONT       FLURRIES  36  35  94 CALM      29.91F
$$

COZ041-046-047-076>085-087-088-300900-
...PIKES PEAK/PALMER DIVIDE AND SOUTHERN FOOTHILLS...

CITY           SKY/WX    TMP DP  RH WIND       PRES   REMARKS
COLO. SPRINGS  MOCLDY    31  29  92 NW3       29.84F
A. F. ACADEMY  FAIR      28  28 100 N13       29.83F WCI  18
SCHRIEVER AFB  NOT AVBL
ELLICOTT       NOT AVBL
FALCON         FAIR      29  26  91 N7        29.84F WCI  22
FORT CARSON    NOT AVBL
LIMON          MOCLDY    29  28  96 NW15      29.83F WCI  18
MONUMENT HILL  CLOUDY    28  28 100 NW14      29.86S FOG     WCI  17
TRINIDAD       FAIR      29  26  89 W5        29.85S WCI  24
$$

COZ042>045-048>051-090-091-300900-
...NORTHEAST COLORADO...

CITY           SKY/WX    TMP DP  RH WIND       PRES   REMARKS
GREELEY ARPT   CLOUDY    34  32  93 NW7       29.90F WCI  28
AKRON          LGT SNOW  30  29  96 N14       29.85F FOG     WCI  19
BURLINGTON     CLOUDY    33  30  88 N13       29.82F FOG     WCI  24
WRAY           NOT AVBL
STERLING       LGT SNOW  32  32 100 N7        29.86F WCI  26
HOLYOKE        NOT AVBL
FORT MORGAN    FLURRIES  32  32  99 N8        29.89S WCI  25
$$

COZ086-089-092>099-300900-
...SOUTHEAST COLORADO...

CITY           SKY/WX    TMP DP  RH WIND       PRES   REMARKS
PUEBLO         CLOUDY    36  33  89 W3        29.86F
LA JUNTA       CLOUDY    36  34  92 NW8       29.86F
LAMAR          FAIR      35  33  92 W6        29.83F WCI  30
SPRINGFIELD      N/A     35  33  92 NW15      29.81F WCI  25
$$




USA.gov is the U.S. government's official web portal to all federal, state and local government web resources and services.